Location: Eimen
(51.8766°N, 9.7806°E)
Time: 11:36:41
(UTC+00:00)

Meteor 1-4 Rocket - Pass Details

Date: 23 May 2024
Orbit: 358 x 379 km, 81.2° (Epoch: 18 June)

Event Time Altitude Azimuth Distance (km) Brightness Sun altitude
Exits shadow 00:56:08 32° 176° (S) 649 2.7 -14.4°
Maximum altitude 00:57:17 70° 101° (E) 390 2.0 -14.3°
Drops below altitude 10° 01:00:13 10° 17° (NNE) 1,357 6.2 -14.1°
Sets 01:02:12 0° 15° (NNE) 2,214 7.7 -14.0°
